GFSGL_con_mucape_231.txt.gz
CAPE
600 606 435 819 1611 1889 1344 1272 1163 1149 1190 1410 1409 1875 2110 2513 2610 2220 2287 2077 2274 2496 2110 1969 1736 1260 1072 1129 1042 1351 1494 1587 1630 1694 1743 1891 1813 1503 1250 1033 996 879 753
730 687 628 682 1284 1872 1589 1648 1623 1338 1346 1532 1853 1835 2063 2149 2723 2705 2396 2465 2368 2276 2409 2579 2453 2161 1987 2019 2059 2054 2048 2104 2122 2130 2171 2208 2206 2213 2073 1585 1254 1217 1097
878 699 641 679 896 1359 1742 1428 1800 2122 1900 1739 2165 1991 2018 2110 2239 2598 2765 2701 2596 2521 2442 2467 2427 2336 2402 2495 2461 2401 2312 2297 2284 2275 2304 2270 2245 2188 2173 2165 2049 1338 903
1034 846 804 676 697 835 1150 1506 1384 1382 1951 2051 1814 2076 1922 1919 2358 2379 2269 2482 2630 2656 2607 2583 2601 2616 2651 2630 2575 2509 2427 2372 2336 2386 2380 2282 2052 1820 1803 1715 1949 1655 1054
921 992 915 900 763 666 717 890 1120 1237 1217 1574 1980 2101 2043 1994 1928 2062 2252 2469 2456 2452 2485 2542 2627 2737 2808 2763 2691 2695 2595 2467 2392 2348 2265 1946 1629 1363 1513 1539 1814 1994 1520
549 1098 931 1017 1058 1049 885 673 675 723 799 933 1407 1736 2183 2129 2000 1916 1861 1922 2198 2322 2305 2296 2348 2376 2388 2430 2492 2468 2429 2426 2275 2296 2209 1773 1441 1526 1474 1700 1896 1949 1401
689 698 1274 1069 1328 1331 1241 1099 1002 826 595 582 723 1169 1503 1874 2143 2190 2265 2231 2165 2114 2080 2044 2042 1973 1893 1841 1810 1804 1807 1932 2170 2259 1988 1490 1324 1263 1552 1842 2026 2062 1612
1207 1208 1308 1458 1451 1552 1583 1544 1473 1303 1153 1023 898 915 1007 1156 1596 1870 2010 2116 2104 2094 2063 2021 1986 1964 1904 1962 2013 1882 1615 1378 1239 1133 1059 1176 1167 1530 1828 2022 2069 1818 1266
2172 1450 1561 1602 1566 1647 1786 1770 1701 1587 1534 1512 1460 1307 1147 1121 1197 1437 1644 1725 1800 1775 1742 1752 1799 1769 1730 1686 1597 1487 1450 1375 1248 1249 1290 1352 1345 1405 1733 2036 1604 1515 1333
2036 2574 2290 1828 1711 1766 1754 1719 1732 1731 1659 1573 1540 1516 1460 1384 1266 1329 1429 1554 1402 1467 1468 1407 1382 1348 1397 1379 1362 1363 1323 1367 1498 1521 1474 1375 1305 1594 1588 1900 1615 1334 1202
1080 1534 1922 2318 2334 2056 1754 1623 1718 1693 1631 1525 1525 1478 1547 1577 1583 1524 1427 1356 1312 1279 1322 1385 1487 1648 1781 1836 1827 1856 1882 1912 1861 1722 1582 1469 1682 1647 1429 1547 1019 923 1035
1117 1344 1560 1758 2113 2275 2430 2397 2255 1792 1726 1645 1565 1743 1569 1546 1621 1644 1649 1654 1694 1730 1866 1971 2043 2135 2193 2256 2369 2473 2443 2318 2230 1980 1815 1784 1855 1115 1058 1025 942 1126 896
618 1277 1667 1921 2210 2745 2809 2517 2471 2416 2341 1968 1778 1765 1798 1723 1792 1868 1926 1970 2032 2163 2280 2325 2351 2396 2483 2576 2697 2799 2819 2678 2304 2176 2002 1799 1746 843 924 777 1039 906 812
145 512 984 1757 2161 2435 3030 3157 2809 2742 2591 2423 2301 2265 2241 2193 2073 2111 2152 2228 2311 2389 2455 2531 2595 2648 2606 2692 2833 2630 2618 2470 2258 1979 1683 1491 1509 987 890 863 802 828 337
0 11 334 757 1212 1409 1633 2286 2922 3032 2826 2876 2788 2644 2576 2496 2437 2428 2409 2395 2466 2467 2381 2389 2449 2333 2316 1807 1574 1526 1532 1656 1629 1611 1382 1346 1252 1072 849 1173 733 508 468
0 0 46 250 463 906 1231 1477 2020 2430 2819 3037 3035 2940 2833 2752 2749 2703 2687 2681 2465 2354 2298 2333 2290 1988 1423 1001 743 542 711 1223 1125 1029 1129 1167 1112 1223 1260 759 631 508 173
3 0 0 29 39 278 587 865 1123 1498 1745 1767 1913 2251 2775 2846 2804 2862 2883 2835 2860 2783 2390 2107 2136 1284 812 228 118 397 819 1177 1043 1073 1154 1265 1313 1098 873 941 586 397 181
0 0 0 0 0 0 154 429 713 811 1104 1454 1638 1820 2075 2230 2307 2393 2459 2552 2693 2694 2576 2257 1187 797 272 505 732 1101 1058 1105 988 1030 860 1279 1347 1238 959 629 427 370 335
0 0 0 0 0 0 0 0 210 503 642 833 1135 1458 1699 1880 2036 2015 2024 2017 1836 2357 2530 2358 1779 1140 813 1325 1284 1100 1023 939 958 971 1049 1251 1045 1299 810 333 209 237 224
0 0 0 0 0 0 0 0 15 167 559 466 702 871 1091 1090 1176 1375 1262 1140 1352 1741 1743 1415 1231 1262 1261 1377 1326 1151 1005 977 956 918 1009 928 912 823 551 235 134 179 146
0 0 0 0 0 0 0 0 0 1 83 236 446 603 595 738 840 933 1054 833 421 422 532 752 856 860 1000 1150 1192 1131 1033 940 814 926 825 786 604 628 277 184 109 87 73
0 0 0 0 0 0 0 0 0 0 0 96 242 413 401 470 616 705 583 452 565 572 521 729 811 865 963 878 773 888 819 709 582 481 367 423 571 273 321 193 126 117 71
0 0 0 0 0 0 0 0 0 0 0 0 1 31 322 446 581 620 683 585 398 398 449 589 734 724 643 469 342 238 141 122 137 147 190 234 147 161 180 203 125 109 61
0 0 0 0 0 0 0 0 0 0 0 0 0 0 16 115 244 482 402 379 339 344 387 354 405 382 389 269 194 104 52 43 45 54 71 102 112 116 133 125 91 105 92
0 0 0 0 0 0 0 0 0 0 0 0 0 0 0 0 81 233 313 334 318 296 284 218 185 124 147 143 105 77 57 67 61 36 86 135 149 155 188 157 97 133 52
0 0 0 0 0 0 0 0 0 0 0 0 0 0 0 0 0 7 43 127 163 211 182 195 125 116 85 31 18 0 2 15 49 72 86 115 160 183 152 122 126 95 56

GFSGL_con_mucape_234.txt.gz
CAPE
331 335 283 492 1028 1259 1334 1375 1237 888 831 973 907 1602 1933 2096 2101 2173 2192 1933 1788 1709 2086 2233 2017 2007 1784 1315 1207 1452 1603 1745 1838 1900 1894 2060 2085 2119 2171 2192 2173 2140 1590
313 287 266 362 915 1266 1453 1455 1183 1176 1084 1118 1360 1419 1673 1955 2226 2231 2398 2349 2181 2216 2068 2097 2125 2394 2370 2241 2121 2195 2225 2224 2187 2206 2217 2179 2212 2272 2139 1969 1826 1889 1919
431 412 414 413 724 1109 1353 1598 1442 1338 1225 1223 1488 1593 1756 1843 2011 2194 2300 2516 2464 2380 2380 2356 2323 2283 2338 2320 2373 2490 2541 2505 2491 2438 2383 2193 2236 1953 1548 1284 1275 1360 1755
596 543 509 473 497 768 1214 1444 1659 1544 1775 1657 1559 1772 1801 1953 1910 1992 2180 2283 2298 2382 2415 2392 2403 2420 2412 2418 2479 2619 2653 2562 2515 2460 2275 2008 1560 1441 1224 1205 1220 1462 1631
791 718 578 522 458 496 721 1126 1332 1548 1454 1741 1884 1795 1754 1740 1840 1976 2036 2134 2189 2207 2171 2190 2253 2290 2338 2401 2451 2526 2308 2285 2209 2033 1931 1868 1756 1641 1476 1241 1250 1558 1608
815 903 836 750 671 562 464 532 744 949 1165 1298 1306 1604 1722 1805 1824 1830 1822 2047 2135 2179 2233 2287 2115 2031 2086 2159 2207 2151 2039 2294 2152 1810 1943 1988 2213 2116 1717 1190 1414 1612 1415
651 675 869 979 929 905 810 648 487 509 600 712 822 1102 1310 1582 1619 1843 1917 1882 1837 1835 1951 2029 2079 1935 1831 1913 1815 1722 1669 1670 1726 1872 1940 1999 1942 1710 1513 1327 1457 1562 1358
645 678 687 852 1101 1101 1196 1087 939 805 702 581 495 484 702 889 924 1261 1622 1697 1711 1870 1955 2036 2003 1992 1948 1745 1632 1569 1505 1431 1309 1177 1174 1199 1301 1217 1270 1174 1340 1426 1464
854 750 733 889 1018 1328 1297 1417 1380 1285 1252 1071 992 790 658 726 671 731 871 1006 1158 1460 1612 1666 1717 1788 1601 1546 1487 1405 1436 1266 1394 1403 1485 1525 1397 1308 1119 1449 1340 1305 1341
1986 1584 1315 1314 1432 1460 1531 1647 1722 1679 1573 1497 1468 1386 1228 1192 1207 1240 1170 1008 949 1077 1237 1274 1069 1155 1231 1260 1196 1308 1628 1785 1937 2079 1968 1819 1610 1360 1464 1475 1124 1188 1365
1648 1790 1950 2003 1965 1851 1621 1682 1718 1729 1845 1860 1815 1713 1643 1582 1491 1392 1335 1320 1349 1363 1399 1480 1482 1399 1485 1642 1777 1926 2048 2231 2297 2384 2330 2182 1856 1555 1658 959 814 1027 540
759 972 1186 1397 1623 1829 1967 2044 2093 2057 1964 1858 1680 1624 1663 1629 1573 1470 1397 1408 1426 1466 1545 1590 1646 1773 1885 1999 2114 2234 2347 2482 2620 2748 2505 2074 1897 1580 1548 1021 765 539 487
207 479 978 1390 1686 1861 2108 2541 2721 2427 2333 2269 2182 1766 1733 1678 1668 1708 1548 1614 1626 1633 1770 1858 1966 2065 2156 2250 2340 2399 2398 2421 2389 2216 1947 1800 1749 1414 1365 1064 803 592 590
5 21 146 556 1064 1734 2163 2405 2952 2910 2701 2449 2498 2405 2212 2014 1784 1872 1788 1960 1903 1969 2093 2165 2146 2129 2109 2025 2294 2449 2339 2255 1934 1597 1533 1444 1275 1106 1158 954 725 681 526
0 0 0 9 157 538 1231 1351 1690 2181 2619 2649 2593 2531 2452 2453 2328 2071 2131 2468 2455 2435 2373 2329 2249 2221 2130 2153 2172 2120 1392 673 644 754 926 1055 1089 871 1069 875 999 648 742
0 0 0 0 2 18 82 472 1041 1226 1697 1833 2356 2583 2840 2668 2643 2609 2612 2587 2568 2569 2635 2603 2325 1968 1965 1926 1944 1664 347 150 102 44 733 860 878 797 942 878 888 571 538
0 0 0 0 0 0 0 7 255 662 1112 1416 1659 1811 1825 2150 2505 2634 2702 2672 2583 2537 2590 2674 2507 2544 2328 1989 1921 1281 433 402 504 854 891 788 640 784 1006 996 718 774 332
0 0 0 0 0 0 0 0 5 42 388 743 1017 1246 1462 1579 1732 1894 2003 2077 2171 2305 2357 2385 2475 2548 2377 2183 1542 1426 672 832 651 859 624 502 522 591 808 859 745 638 373
0 0 0 0 0 0 0 0 0 1 84 168 430 664 705 950 1258 1528 1702 1677 1665 1911 1959 2027 2031 2347 2430 2200 1726 1343 908 1079 1021 883 560 442 349 322 474 698 691 335 211
0 0 0 0 0 0 0 0 0 0 0 15 120 298 378 337 576 799 881 874 1075 1147 1377 1253 1497 1824 2053 1918 1220 1189 1171 1170 1032 753 563 433 413 237 393 472 305 226 130
0 0 0 0 0 0 0 0 0 0 0 0 0 40 101 140 259 437 412 455 726 831 835 868 902 768 912 905 831 874 944 963 829 574 471 524 348 336 320 150 196 101 99
0 0 0 0 0 0 0 0 0 0 0 0 0 0 0 8 122 466 699 710 638 821 856 663 604 917 958 834 607 679 856 898 724 511 442 311 253 183 78 103 87 72 84
0 0 0 0 0 0 0 0 0 0 0 0 0 0 0 0 0 104 433 612 596 530 512 417 518 754 791 687 666 613 485 489 238 77 69 54 284 84 78 55 55 107 104
0 0 0 0 0 0 0 0 0 0 0 0 0 0 0 0 0 0 11 358 338 393 371 384 463 598 726 575 611 499 346 231 132 56 13 9 24 45 64 76 82 82 116
0 0 0 0 0 0 0 0 0 0 0 0 0 0 0 0 0 0 0 19 168 216 150 338 354 321 296 452 344 371 288 333 245 173 44 22 17 20 36 48 84 95 74
0 0 0 0 0 0 0 0 0 0 0 0 0 0 0 0 0 0 0 0 0 20 90 72 85 174 234 189 150 150 138 87 56 37 18 12 42 30 58 74 75 91 94

GFSGL_con_mucape_240.txt.gz
CAPE
1598 1772 1920 1756 2222 2472 2398 2573 2872 2922 3067 2547 2895 3028 2991 3007 3598 3960 3733 3019 3409 3084 2502 2762 3344 3593 3114 2737 2652 2498 2355 2396 2330 2014 2035 2420 3438 3297 3177 3299 3086 2777 2352
2397 2846 1797 1442 1808 2130 2396 2268 2779 3074 3171 3128 2902 3069 3111 3201 3324 3838 3840 3301 3553 3483 3148 3185 3202 2823 3508 3603 3108 3295 2992 3148 2959 4161 3651 2796 3735 3189 3074 3047 2760 2481 2400
2348 1791 1692 1707 1611 1605 1752 2073 2676 2947 3193 2972 3137 3085 3084 3112 3056 3361 3681 3664 3720 3597 3497 3113 3117 3279 3546 3311 3305 2991 2703 2567 2908 2426 2577 2302 2456 2452 2745 3152 3132 3119 2416
1546 1599 1930 1517 1570 1611 1908 2411 3272 3342 2982 2934 2948 3156 3245 3291 3219 3182 3281 3501 3681 3659 3658 3649 3558 3515 3728 3883 3834 3729 3661 3439 3204 2718 2178 1866 2173 2625 2466 2723 2316 2002 2095
1652 1570 2027 2107 2226 2040 2460 2232 2346 3243 3333 2727 2895 3001 3056 2980 2795 3016 3099 3195 3383 3517 3544 3598 3555 3315 3011 3100 3065 4023 4794 3280 2088 1509 1354 1421 1276 1301 1830 1904 2106 2007 2653
2222 1591 2171 2815 2931 2907 2757 2747 3258 2843 3490 3095 2945 2575 2625 2441 1780 1758 1871 2398 2521 2850 3174 3314 3238 2731 2691 2552 2404 2283 2125 3143 4468 2526 1591 1431 3217 2841 1833 2159 2345 2434 2290
1842 1900 1827 2614 2296 2680 2346 2724 3034 3229 3391 3559 3011 2688 3044 3060 1943 1713 1633 2583 2437 2303 2913 2672 2476 1987 1877 2108 1978 2165 2243 2127 2033 2656 3072 3406 3596 3969 4055 3725 3766 2911 2641
2079 2088 2064 2120 2141 2553 2599 2680 2878 2484 2985 3188 2858 3327 3272 2925 1839 1720 1824 2392 2530 2943 2601 2624 3239 3417 3294 2781 2897 2067 2094 2094 2121 1989 2387 2892 2935 2942 3757 3431 3028 2072 1334
1641 1896 1818 2187 2169 2050 2146 2231 2200 2210 2314 2369 2499 2763 3115 3272 1918 1375 1330 1892 1756 1960 2169 3078 2721 3081 2522 2112 2514 2899 2781 2408 1952 1834 1665 1704 1725 1704 1683 1686 1557 1501 1371
966 633 782 959 1440 1986 1952 2095 2390 2658 2533 2424 2463 2526 2403 2740 2236 1867 1395 1520 1709 1842 2729 3086 1950 2047 2284 2011 2352 2626 2773 2772 2868 3003 3279 2673 2558 2401 2142 1817 1713 1905 1365
357 120 257 334 576 1284 1705 1901 2378 2614 2947 3023 3320 3316 3751 3311 3317 2391 1996 1971 2135 2287 2317 2351 2371 1920 1800 1735 1637 2189 2416 2581 2549 2816 2906 3265 3311 3052 3014 2074 1712 1250 1494
756 719 578 556 346 686 885 991 1637 2041 2490 2655 2962 3115 3035 3927 3129 2842 2591 2318 2019 2426 2604 2620 2583 2138 1948 1804 1745 1664 1553 1629 1721 2073 2327 2586 2690 2677 3300 2712 1702 1216 670
375 383 303 372 599 764 894 1120 1290 1491 1723 2451 2348 2797 2858 2748 3441 2796 2681 2290 1924 1720 2262 2012 1891 1829 1808 1742 1683 1557 1601 1776 1810 2182 2638 2243 2158 1784 2012 1530 1564 842 508
119 116 99 149 136 251 548 854 1180 1435 1544 1609 1917 2105 2073 2639 2704 2915 3034 2860 2935 2017 1685 1409 1494 1613 1478 1586 1730 1834 1976 2235 2616 3010 2815 2213 2030 1714 1221 1054 742 633 295
14 22 17 3 40 9 32 80 154 541 980 1321 1550 1649 1436 1412 1584 1959 2304 2434 2259 2158 2205 2327 2668 2326 2340 2753 3193 3319 3273 3002 2622 2297 1999 1778 1626 995 597 341 319 463 179
0 0 0 3 0 2 17 30 0 7 54 225 347 502 731 863 906 1001 1089 1361 1653 1881 2028 1795 2034 2148 1597 2434 3388 3751 3827 2545 2414 2181 2306 1545 1315 975 522 540 550 291 53
0 0 0 0 0 0 0 0 0 0 0 10 18 61 148 344 494 664 816 1014 1147 1423 1729 1746 1523 1643 2276 3029 3279 3183 3322 3761 3768 3086 2361 1842 1287 1062 345 769 490 161 32
0 0 0 0 0 0 0 0 0 0 0 0 0 0 25 81 153 253 405 535 782 992 1204 1285 1269 1288 1426 1729 1946 1980 2388 3074 3388 2930 2525 2016 1701 937 917 893 447 114 18
0 0 0 0 0 0 0 0 0 0 0 0 0 0 0 0 3 78 182 301 424 571 653 776 822 809 774 798 840 841 892 2117 2154 2608 2335 1842 1417 1204 1012 696 442 301 59
0 0 0 0 0 0 0 0 0 0 0 0 0 0 0 0 0 0 0 33 82 93 157 185 190 238 302 446 507 777 1190 1234 1346 1418 1429 1382 1519 1206 823 641 371 295 99
0 0 0 0 0 0 0 0 0 0 0 0 0 0 0 0 0 0 0 0 0 1 19 166 244 362 525 410 473 783 778 945 754 843 786 915 1278 1008 561 207 336 274 41
0 0 0 0 0 0 0 0 0 0 0 0 0 0 0 0 0 0 0 0 0 0 0 0 52 134 381 455 476 653 747 824 862 835 957 950 844 714 362 398 364 117 138
0 0 0 0 0 0 0 0 0 0 0 0 0 0 0 0 0 0 0 0 0 0 0 0 0 0 269 428 521 492 649 676 682 594 484 508 570 452 310 255 186 186 208
9 0 0 0 0 0 0 0 0 0 0 0 0 0 0 0 0 0 0 0 0 0 0 0 0 0 0 39 227 293 462 596 514 413 382 343 333 277 225 162 248 269 181
0 0 0 0 0 0 0 0 0 0 0 0 0 0 0 0 0 0 0 0 0 0 0 0 0 0 0 0 0 0 16 33 106 222 326 431 256 188 174 196 195 96 26
1 0 1 0 0 0 0 0 0 0 0 0 0 0 0 0 0 0 0 0 0 0 0 0 0 0 0 0 0 0 0 1 26 44 66 225 210 331 403 333 233 202 170

GFSGL_con_mucape_246.txt.gz
CAPE
2358 2589 2784 2853 2934 3252 3179 3950 3747 3883 4295 4276 4027 3681 3811 3879 4014 4333 4184 4019 4086 3854 3638 3960 3841 3413 3361 3345 3597 3847 3441 3186 2716 2810 2818 2517 3360 3323 3456 3610 3938 3487 3110
2301 2613 2750 2849 2712 2589 3048 3473 4200 4059 4322 3942 4072 4279 4202 3911 3948 4048 3503 2319 3712 3834 3816 3682 3557 3049 3890 4006 3801 3638 3132 3055 3101 2627 2858 3348 2722 2214 2614 3890 3503 2633 2706
2512 2387 2379 2575 2338 2512 2647 2811 3664 3741 3551 3868 3915 3800 3975 3911 3749 3789 3969 3727 4067 3931 3545 3877 3838 3887 3966 3742 3886 4000 3515 3112 3393 2968 2400 2455 2573 2750 2409 2313 3167 3222 3224
2396 2244 2477 1970 1957 2109 2438 2794 2783 3624 3375 3520 3871 3849 3938 3877 3533 3438 3304 3764 4067 3871 4172 4451 4340 4234 3921 4230 4250 4018 3919 3947 3634 3525 3080 2731 2070 1406 1512 1781 1211 1128 1638
2397 2303 2246 2253 2090 1981 1823 2330 2807 3178 3515 3637 3599 3691 3889 3813 3379 3411 3426 3467 3455 3405 3525 3958 4239 4204 3430 3884 3749 3854 4193 3877 2906 2227 1948 1831 1771 1619 1804 1640 1719 1502 2038
2612 2266 2525 2667 2485 2407 2501 1867 2399 3361 2854 3640 3597 3449 3567 3272 2690 2538 2717 3263 3300 3415 3242 3413 3542 3228 2865 2640 2398 2411 2598 2835 2782 2800 2674 2554 2485 2267 2218 2354 2514 2503 2134
3514 2851 2965 2767 2617 2967 2970 3257 3075 2989 3375 3260 3610 3457 2983 3328 2704 2319 1574 2100 3201 3036 3182 3235 3159 2923 2668 2966 2853 2390 2245 2200 2126 2190 2425 2324 2228 2294 2630 2915 2705 2364 2062
3503 3063 3160 3156 3449 3327 3407 3243 3681 3926 3371 2959 2550 2889 3282 3208 2590 2353 2070 1672 2334 2911 2910 2636 2917 2920 2761 2447 2354 2293 2247 2280 2131 2057 1949 1793 1830 2209 2636 2587 2363 2074 1580
2826 3161 3153 3326 3381 3451 3415 3328 3304 2874 2724 3125 2807 1867 2286 2641 2331 2208 2061 1794 1793 2070 2349 2593 2655 2594 2365 2210 2008 2305 2424 2399 2387 2475 2207 1964 1839 1908 1939 1848 1856 1178 847
1963 2095 2712 2800 2699 2786 2133 2361 2041 1258 981 1592 2348 1760 1607 1614 2084 2262 2146 1929 2175 2120 2030 1922 1714 1633 1785 1820 1765 1968 2176 2445 2727 2963 2925 2936 3137 3063 2710 2208 1841 1289 1081
1820 2008 1836 1701 1706 1710 1741 1306 1025 854 619 1312 1300 899 628 935 1336 1565 1848 1719 2170 2328 2284 1957 1731 1368 1460 1539 1614 1593 1974 2231 2610 2504 2917 2566 2370 2539 2623 2015 1953 1630 1907
1342 1190 1040 1020 1030 1184 1094 791 360 372 159 100 81 166 235 352 773 815 948 1026 266 835 1822 2123 2340 1861 1721 1684 1779 1529 1419 1383 1337 1435 1726 1919 2063 2766 2179 2028 1757 1550 1566
696 668 638 532 581 702 1026 917 763 458 267 600 575 448 226 231 302 230 522 705 830 1374 1817 2083 2073 1988 1865 1604 1806 1873 1727 1561 1454 1572 1889 2106 2441 2104 2018 1942 1741 1490 1402
625 777 942 1065 811 1038 1216 1211 702 453 449 474 328 197 242 567 398 399 409 429 594 1082 1273 1453 1505 1500 1523 1615 2232 2110 1467 1482 1646 2061 2464 2930 2083 1983 1993 2061 1663 1833 1021
177 384 776 666 670 689 779 346 212 292 246 271 225 143 157 133 110 171 205 183 337 559 528 579 744 1473 2338 2548 2511 2718 2130 2191 2423 2167 2129 2025 2254 2183 2016 1610 1411 1085 333
67 30 108 105 494 506 374 72 30 26 19 0 0 0 0 0 0 0 0 1 9 36 106 271 733 1059 1353 1300 1448 1472 1536 1531 1790 1808 1941 1824 2132 2356 1934 1854 1399 1117 606
11 0 42 40 25 18 133 376 112 0 0 0 0 0 0 0 0 0 0 10 23 66 147 560 714 814 1108 1518 1608 1383 854 660 615 860 1281 2069 2227 2161 1817 1692 1542 1319 1209
0 0 0 0 0 0 0 0 0 54 11 1 0 0 0 0 0 0 0 0 0 0 0 2 26 87 167 238 307 357 315 251 169 121 164 279 868 1608 1692 1510 1582 1363 1048
0 0 0 0 0 0 0 0 0 0 7 13 20 0 0 0 0 0 0 0 0 0 0 0 0 0 0 4 21 45 49 93 191 187 190 234 411 641 1306 1467 1288 1163 1092
0 0 0 0 0 0 0 0 0 11 15 5 0 3 0 0 0 6 3 0 0 0 0 1 0 0 0 0 0 1 10 120 170 106 131 379 729 1176 1081 1318 1393 1254 1474
0 0 0 0 0 0 0 0 0 3 3 1 18 0 0 0 0 0 4 0 0 0 0 0 0 0 0 0 0 0 0 9 49 98 132 565 413 980 1209 1169 1058 869 1097
0 0 1 6 15 37 33 11 5 0 0 1 5 1 0 0 0 0 4 8 1 0 0 0 0 0 0 0 0 0 0 0 3 18 50 101 435 662 664 1019 675 547 709
1 0 0 0 0 9 9 4 3 0 0 10 1 0 0 0 10 0 0 0 0 4 1 0 0 0 0 0 0 0 0 0 0 0 14 28 71 234 315 333 353 455 844
0 0 0 0 1 0 5 30 37 2 1 0 0 0 0 0 0 0 3 0 0 0 0 0 0 0 0 0 0 0 0 0 0 0 0 0 2 36 59 90 118 197 370
0 0 0 0 12 18 6 18 42 23 2 10 17 25 12 3 0 0 0 1 0 0 0 0 0 0 0 0 0 0 0 0 0 0 0 0 0 0 0 50 140 142 245
0 0 0 3 19 27 44 37 12 6 27 28 14 19 12 4 1 0 1 9 2 0 0 0 0 0 0 0 0 0 0 0 0 0 0 0 0 0 0 2 8 123 197